User: anonymous   Login
Location: Fort Wayne
(41.1310°N, 85.1290°W)
Time: 13:36:50
(UTC-04:00)
Language:

Cosmos 2219 Rocket - Orbit

View from above orbital plane
View from above orbital plane
View from above satellite
View from above satellite

Ground track
Ground track

The orbit data is extracted from the following two-line orbital elements,

1 22220U 92076B   15142.17115582  .00000247  00000-0  14847-3 0  9995
2 22220 071.0004 212.6598 0013518 337.3578 050.1625 14.16366221163583
Epoch (UTC): 22 May 2015 04:06:27
Eccentricity: 0.0013518
inclination: 71.0004°
perigee height: 828 km
apogee height: 847 km
right ascension of ascending node: 212.6598°
argument of perigee: 337.3578°
revolutions per day: 14.16366221
mean anomaly at epoch: 50.1625°
orbit number at epoch: 16358

The dashed part of the orbit path shows where the satellite is in the earth's shadow,  

DLR